Theta_e
343 344 340 339 338 339 341 339 340 339 341 341 341 341 341 341 342 342 340 338 339 340 339 339 339 342 341 341 338 337 337 339 338 338 337 339 341 340 337 335 338 340 342
342 343 339 339 338 339 339 338 336 339 340 341 342 341 342 342 343 342 341 340 339 339 339 337 337 338 340 340 338 331 324 333 337 336 336 334 339 339 338 336 336 340 340
341 341 342 339 338 338 337 340 339 334 334 335 336 338 338 337 336 336 337 338 339 340 338 337 336 334 336 337 334 330 327 325 328 336 336 336 337 339 338 338 338 339 339
342 342 343 338 338 338 337 337 337 339 336 336 334 332 332 334 335 338 338 339 340 340 337 337 337 331 324 327 328 325 326 327 323 330 334 334 338 336 337 338 339 338 338
341 341 342 337 337 337 337 337 337 337 337 337 339 336 335 334 336 340 340 339 340 337 330 329 332 331 327 323 326 326 327 330 329 333 336 338 339 337 339 340 337 335 334
339 340 339 336 336 336 336 335 336 336 336 336 337 337 337 337 334 335 338 338 337 338 331 328 331 329 330 331 328 326 324 322 328 332 335 337 340 338 339 338 336 337 337
339 339 339 333 333 333 333 333 334 335 336 336 336 336 336 336 336 334 334 337 337 335 336 330 327 330 330 332 332 331 331 332 331 329 331 333 336 338 337 333 336 337 337
337 338 338 336 333 334 334 334 334 334 335 335 335 335 336 336 335 336 335 334 334 334 334 334 332 327 329 331 333 332 331 332 332 330 332 330 331 336 336 330 336 338 335
326 326 327 331 333 331 325 326 330 333 334 335 335 334 335 335 335 335 335 335 335 333 332 333 333 332 326 327 331 331 329 331 333 334 336 337 333 331 339 330 332 338 336
316 316 316 317 320 325 327 325 319 318 321 327 331 333 334 334 334 334 333 335 335 334 334 332 332 332 331 322 326 330 328 330 332 335 336 338 335 334 337 335 332 333 331
312 312 314 315 316 317 319 320 320 320 317 316 317 317 320 329 334 336 336 335 334 335 334 334 332 332 332 326 320 326 329 329 330 331 335 335 334 334 335 335 331 333 332
308 309 309 312 314 315 316 317 320 320 318 319 319 320 320 321 322 326 333 333 334 334 334 334 334 333 332 334 330 323 327 327 327 328 331 332 333 335 335 335 334 333 331
305 306 307 308 311 315 317 316 318 320 320 319 319 319 319 320 322 324 325 331 334 335 335 335 335 336 336 335 332 328 325 324 323 324 328 329 334 334 334 334 335 332 330
303 304 304 306 308 311 316 317 317 318 319 319 319 318 319 319 321 323 326 329 329 333 334 335 335 335 336 336 335 331 328 325 323 322 324 327 332 334 333 329 331 329 330
301 301 302 303 305 308 313 316 317 317 317 318 318 318 319 319 320 322 323 325 329 330 332 334 334 334 335 335 335 334 330 328 327 326 323 324 328 333 333 335 331 329 329
298 298 299 300 302 305 309 312 316 317 317 318 318 319 319 319 320 321 322 323 325 327 330 332 333 333 334 334 334 334 334 332 329 330 329 328 322 327 332 331 332 332 331
295 295 296 297 298 301 304 309 312 315 317 318 318 319 319 319 320 320 320 320 322 325 328 331 333 332 333 334 334 333 333 333 333 330 329 331 330 329 332 332 331 329 330
292 292 293 293 294 297 299 303 308 311 311 312 314 316 316 318 319 319 319 319 320 322 324 326 329 330 332 330 333 332 332 333 333 333 332 329 330 330 330 332 331 330 329
290 290 291 291 291 293 296 299 302 306 307 306 307 308 309 311 314 318 319 319 319 320 321 323 325 326 326 327 328 327 328 328 330 332 333 333 331 330 330 329 327 330 330
288 289 289 290 290 291 292 293 296 299 301 302 302 302 303 305 308 313 317 318 319 320 321 322 323 323 324 324 324 324 325 326 327 329 332 333 333 331 329 331 330 327 327
287 287 288 288 288 289 290 291 292 293 298 299 297 298 299 300 303 306 311 315 316 318 319 320 322 323 322 323 325 323 322 323 324 326 329 332 332 332 331 329 330 330 329
286 286 286 286 287 287 288 289 289 290 292 294 292 294 295 294 299 301 304 308 313 315 317 319 321 322 322 322 322 320 322 319 322 322 325 330 331 331 331 331 331 330 330
286 285 285 285 285 286 286 287 288 289 290 290 290 291 292 292 293 295 299 303 307 311 314 316 317 319 321 321 321 320 321 321 319 322 323 324 326 328 329 330 331 330 330
285 285 284 284 284 284 285 285 286 287 288 288 288 289 289 290 292 290 293 298 301 305 309 313 315 316 317 319 320 320 321 320 321 321 323 322 321 322 323 325 328 329 330
285 284 284 284 284 284 283 284 284 285 286 286 287 287 288 289 289 290 292 293 296 300 304 306 311 313 315 316 317 319 319 320 320 320 320 319 322 323 324 324 325 326 327
284 284 283 283 283 283 283 283 283 284 284 284 285 286 286 287 288 288 289 291 293 295 299 302 303 306 312 315 316 317 318 318 317 318 320 319 318 319 321 322 322 322 322
Wind_Speed
5 5 6 6 7 8 8 10 11 11 13 11 11 12 11 11 11 11 11 11 11 10 10 10 10 10 12 12 11 11 11 10 13 15 14 15 14 13 14 17 17 16 18
7 5 5 5 7 7 9 9 10 11 12 11 11 10 10 10 10 9 8 8 9 10 10 10 9 10 10 11 10 9 10 10 12 12 12 12 12 12 16 16 15 16 16
7 6 5 5 5 7 8 9 8 9 9 9 9 8 7 6 5 5 6 7 8 9 10 10 9 9 9 8 9 9 9 9 9 10 12 8 9 12 15 16 16 15 15
7 7 6 6 6 6 5 6 6 6 7 7 7 7 6 6 6 6 7 7 8 8 9 9 9 8 8 8 9 9 9 8 8 10 6 7 8 11 14 15 13 13 13
7 6 5 6 6 6 5 4 4 4 4 4 4 4 4 5 5 6 6 6 6 7 6 7 7 7 7 8 8 8 8 7 7 7 7 6 6 11 13 12 12 13 13
8 7 5 5 5 5 5 4 3 3 2 2 2 1 2 1 2 3 4 4 4 6 4 5 6 7 7 7 7 7 7 5 6 4 4 5 4 13 13 12 13 13 12
8 7 6 6 6 5 5 4 4 3 3 2 2 1 1 1 2 2 1 2 4 5 5 5 5 5 6 7 6 6 4 2 2 3 3 3 2 12 12 12 11 11 11
9 8 8 9 6 6 5 5 5 4 3 3 3 2 2 3 3 4 3 3 4 4 5 6 6 5 6 7 7 6 3 2 2 4 4 3 5 7 8 10 11 11 11
14 12 11 10 10 11 9 7 6 5 5 5 4 4 4 4 4 5 6 6 6 6 6 6 7 7 6 8 9 8 6 2 2 3 3 2 6 8 7 9 12 12 12
16 16 16 15 13 11 9 11 7 6 6 6 6 6 7 7 7 7 7 8 9 9 8 8 8 8 7 8 11 10 9 6 3 4 3 3 3 7 10 12 12 10 10
18 18 16 14 13 12 11 9 8 9 8 8 8 9 8 7 8 8 9 9 10 10 10 10 9 9 9 9 10 12 11 8 7 6 5 7 5 6 13 17 13 12 11
22 20 18 16 14 12 10 10 9 8 7 7 7 7 8 8 8 9 10 10 11 12 12 12 11 10 11 9 8 11 10 10 10 9 7 8 6 4 10 16 15 14 12
19 20 21 19 15 13 11 10 9 9 9 8 7 6 6 7 8 8 9 9 9 11 10 11 12 12 13 11 10 10 10 10 10 10 9 9 6 8 8 12 13 13 12
22 23 23 22 19 15 13 9 9 9 9 8 8 9 8 6 5 7 8 9 10 10 11 10 11 13 13 13 12 11 11 10 9 10 11 11 9 9 10 11 12 13 12
24 24 25 24 23 19 15 12 9 8 8 9 9 9 8 8 7 5 5 7 9 10 12 12 12 13 13 14 14 13 13 12 11 10 10 13 12 12 13 13 14 14 13
23 24 24 25 24 21 17 15 12 10 9 8 8 9 9 8 8 8 7 6 7 9 11 13 13 13 13 13 14 15 15 13 13 12 11 10 15 15 16 16 15 14 14
22 22 25 24 25 24 21 18 15 13 11 11 10 10 11 10 10 9 8 8 7 7 9 11 12 13 13 12 13 14 15 16 15 15 14 12 11 17 17 18 17 16 16
21 24 23 25 26 24 24 19 17 16 14 13 11 11 14 13 12 10 10 9 9 9 8 9 10 12 10 10 9 12 15 14 15 17 16 16 15 14 16 20 20 19 17
21 23 24 25 28 26 23 20 17 16 16 17 16 16 17 14 14 12 11 10 10 10 9 10 10 10 11 13 16 17 17 18 20 17 18 19 18 17 16 19 23 23 22
21 22 23 24 26 25 23 21 17 17 16 15 17 19 19 18 17 15 12 12 12 10 10 11 11 12 13 15 16 16 17 18 19 18 19 21 21 20 19 17 17 25 26
21 22 24 25 26 26 25 26 23 23 16 15 17 18 18 19 18 17 14 14 12 12 12 13 13 14 14 14 12 16 19 20 21 21 21 20 22 22 21 21 20 18 18
20 21 22 24 24 24 22 20 19 19 14 14 18 16 17 20 18 17 17 15 14 14 14 13 14 14 14 13 13 14 7 13 16 22 21 20 20 20 20 22 21 20 21
19 21 21 21 22 21 22 20 20 17 16 16 21 20 21 21 19 18 17 17 16 13 13 15 15 16 17 17 14 13 5 6 6 8 17 20 20 20 18 19 20 21 19
16 18 19 20 21 20 21 20 21 19 21 21 21 22 24 21 19 21 20 17 17 15 13 14 15 17 19 21 20 18 23 18 6 5 6 11 15 18 20 18 16 17 18
16 17 18 18 19 19 19 19 20 20 20 22 22 24 23 21 19 19 19 19 18 17 16 16 16 17 20 23 24 22 17 21 22 16 10 8 9 11 12 16 20 20 18
15 17 19 20 20 20 19 19 18 20 22 22 24 25 23 24 24 21 20 20 20 20 19 18 19 20 24 26 27 28 26 14 16 16 11 16 16 13 14 14 14 14 14
Wind_Direction
133 126 131 133 138 125 118 108 111 109 109 102 105 107 112 110 106 105 103 102 99 98 96 95 99 97 105 105 99 98 111 117 113 112 112 110 112 110 117 109 102 103 101
129 125 129 135 142 140 126 107 110 115 112 120 110 110 110 111 110 108 105 101 100 103 101 99 100 105 106 112 108 103 105 115 123 119 115 117 117 118 120 118 119 116 109
118 113 103 123 136 133 130 121 108 111 116 117 122 123 119 119 116 113 111 111 111 112 111 109 107 105 110 122 117 114 111 113 128 131 115 129 133 132 128 129 127 119 119
109 106 100 108 111 116 121 117 110 105 104 108 112 118 122 122 119 114 115 115 119 124 121 121 121 117 117 114 119 121 114 111 114 123 113 130 149 151 144 135 129 127 122
96 95 91 85 87 97 105 103 111 108 104 112 121 114 111 122 127 130 128 136 138 146 134 131 131 128 127 124 125 126 120 109 112 111 123 130 154 168 147 142 135 130 123
77 68 51 58 64 61 66 73 73 68 68 75 75 119 127 137 146 153 149 163 153 164 153 150 144 143 144 141 138 133 124 124 105 130 131 111 95 153 148 142 148 144 143
72 65 54 52 38 46 40 35 42 45 41 32 14 357 286 252 253 239 204 175 180 182 187 182 173 167 165 163 168 162 150 138 157 153 152 123 95 160 157 157 153 151 149
52 40 34 21 26 28 25 15 6 359 355 351 337 315 290 285 262 262 265 246 223 218 210 208 207 199 198 196 198 197 194 115 107 169 176 178 185 153 156 168 166 163 162
38 31 20 16 11 4 0 1 356 345 337 329 318 309 296 282 277 263 258 261 262 252 236 227 218 230 227 222 220 219 220 203 173 168 149 176 224 191 189 202 185 176 171
31 25 17 8 2 359 356 343 344 339 332 323 317 308 299 300 290 284 270 277 263 260 253 238 231 234 242 234 229 230 229 231 240 213 220 210 197 208 214 215 197 197 184
19 13 6 360 354 346 339 336 344 338 342 346 339 325 324 306 296 292 276 263 260 259 256 249 239 238 239 241 232 231 235 237 239 237 230 242 255 263 238 212 198 198 197
8 3 0 353 346 337 333 325 320 318 319 331 340 339 334 320 301 285 279 275 270 266 260 251 248 243 241 232 234 231 230 237 240 242 242 243 253 255 189 189 202 198 197
7 5 1 354 345 340 326 316 316 314 311 314 319 319 315 323 319 313 296 289 278 278 267 262 249 238 235 232 230 229 230 231 235 240 239 239 228 207 176 176 194 203 204
15 12 8 3 356 348 338 324 311 313 312 318 317 324 316 303 307 311 307 305 290 281 273 263 257 248 240 240 237 237 235 234 232 236 238 234 222 206 203 190 204 210 210
20 14 13 11 8 1 358 348 337 325 325 323 328 331 327 316 309 302 305 308 305 291 285 275 258 255 252 247 243 240 239 240 238 237 234 239 226 215 203 206 211 213 220
21 17 14 15 14 12 8 5 0 352 343 344 345 346 342 331 319 312 303 298 304 303 299 288 279 263 254 252 249 248 246 243 243 240 245 248 233 227 215 214 217 221 224
24 19 20 16 15 18 15 14 14 9 9 7 2 4 360 352 336 323 309 303 297 294 297 299 291 277 268 253 254 253 254 251 247 244 243 245 246 232 226 221 217 223 225
28 25 22 21 19 17 16 18 19 19 21 24 19 13 8 0 352 335 321 312 306 298 286 284 289 298 290 275 271 265 258 258 258 252 246 242 240 236 236 230 229 227 227
25 24 23 21 20 17 16 15 19 18 21 16 18 15 6 2 358 345 327 319 318 303 290 283 280 279 278 278 275 273 272 271 264 258 250 245 243 239 235 237 235 237 235
27 25 23 21 18 18 16 15 14 10 8 8 9 5 4 2 357 351 337 328 323 309 298 287 277 276 276 277 276 272 263 260 265 258 251 249 243 241 239 235 236 237 236
26 24 21 18 16 15 13 9 5 359 356 360 356 354 353 354 354 352 339 330 326 313 301 289 281 276 270 274 282 275 272 260 248 250 252 249 244 239 239 239 238 237 239
20 19 16 14 10 10 7 1 357 350 342 339 344 345 346 347 344 342 338 326 320 315 307 298 282 275 272 264 263 279 283 269 248 241 237 239 243 241 237 237 239 240 239
13 9 7 6 3 1 359 352 350 346 341 338 340 337 337 337 335 331 327 323 315 310 298 294 289 282 276 266 253 252 265 251 295 240 237 233 236 239 241 241 239 237 238
2 359 359 357 356 354 353 349 346 339 332 329 325 323 324 325 323 323 318 315 310 304 297 287 279 278 276 267 263 243 252 260 266 273 228 240 237 235 234 235 238 237 237
354 351 348 345 345 344 343 340 334 327 322 318 317 316 315 314 312 314 314 311 306 300 292 288 284 267 271 264 260 258 244 246 250 257 265 233 234 233 229 232 235 240 240
346 344 340 337 335 334 332 329 323 317 314 312 312 312 310 309 308 306 307 306 302 298 291 288 285 277 260 267 257 256 250 237 236 240 243 252 258 247 234 225 225 230 234